SAS4049 ENGM-ENZV

Flight info

Callsign SAS4049
Flight time 0h 39m
Altitude 32000
Route ATLAP DCT IPMOD DCT ROPNO
Aircraft A320/M-SDE3FGHIRWY/LB1

Departure

Time 2026-05-06 19:14
Airport Oslo-Gardermoen International Airport (ENGM)

Arrival

Time 2026-05-06 19:53
Airport Stavanger Airport, Sola (ENZV)
Time Latitude Longitude Altitude Speed Heading
2026-05-06 18:35 60.19563 11.10154 685 ft 0 kts 286°
2026-05-06 19:05 60.19558 11.10189 677 ft 4 kts 286°
2026-05-06 19:06 60.19550 11.10237 677 ft 2 kts 286°
2026-05-06 19:06 60.19550 11.10240 677 ft 0 kts 286°
2026-05-06 19:09 60.19557 11.10241 681 ft 3 kts
2026-05-06 19:09 60.19594 11.10341 685 ft 13 kts 60°
2026-05-06 19:09 60.19593 11.10542 683 ft 17 kts 106°
2026-05-06 19:10 60.19557 11.10787 683 ft 20 kts 107°
2026-05-06 19:10 60.19517 11.11070 682 ft 23 kts 105°
2026-05-06 19:10 60.19511 11.11323 679 ft 16 kts 40°
2026-05-06 19:10 60.19627 11.11400 683 ft 19 kts 16°
2026-05-06 19:11 60.19759 11.11477 684 ft 21 kts 16°
2026-05-06 19:11 60.19903 11.11561 685 ft 22 kts 16°
2026-05-06 19:11 60.20048 11.11644 679 ft 18 kts 17°
2026-05-06 19:11 60.20164 11.11737 684 ft 17 kts 57°
2026-05-06 19:12 60.20146 11.11992 685 ft 19 kts 111°
2026-05-06 19:12 60.20107 11.12213 685 ft 11 kts 137°
2026-05-06 19:12 60.20060 11.12214 690 ft 0 kts 195°
2026-05-06 19:13 60.20059 11.12214 690 ft 1 kts 195°
2026-05-06 19:13 60.19978 11.12168 681 ft 37 kts 195°
2026-05-06 19:13 60.19492 11.11887 679 ft 104 kts 196°
2026-05-06 19:14 60.18628 11.11386 688 ft 153 kts 197°
2026-05-06 19:14 60.17617 11.10804 1255 ft 149 kts 197°
2026-05-06 19:14 60.16603 11.10237 1819 ft 154 kts 198°
2026-05-06 19:14 60.15531 11.09629 2248 ft 170 kts 198°
2026-05-06 19:15 60.14324 11.08927 2543 ft 191 kts 198°
2026-05-06 19:15 60.12973 11.08246 2865 ft 212 kts 189°
2026-05-06 19:15 60.11414 11.07883 3217 ft 238 kts 188°
2026-05-06 19:15 60.09698 11.07502 3788 ft 256 kts 188°
2026-05-06 19:16 60.07905 11.07105 4710 ft 261 kts 189°
2026-05-06 19:16 60.06179 11.05998 5620 ft 263 kts 213°
2026-05-06 19:16 60.04885 11.03453 6554 ft 264 kts 238°
2026-05-06 19:16 60.03957 11.00276 7495 ft 265 kts 240°
2026-05-06 19:17 60.03039 10.97063 8426 ft 267 kts 240°
2026-05-06 19:17 60.02111 10.93818 9350 ft 270 kts 240°
2026-05-06 19:17 60.01169 10.90544 10185 ft 275 kts 240°
2026-05-06 19:17 60.00171 10.87105 10453 ft 298 kts 240°
2026-05-06 19:18 59.99095 10.83415 10826 ft 314 kts 240°
2026-05-06 19:18 59.97989 10.79623 11550 ft 318 kts 240°
2026-05-06 19:18 59.96872 10.75804 12366 ft 319 kts 241°
2026-05-06 19:18 59.95752 10.71983 13200 ft 320 kts 241°
2026-05-06 19:19 59.94621 10.68124 13987 ft 321 kts 242°
2026-05-06 19:19 59.93737 10.64078 14657 ft 322 kts 257°
2026-05-06 19:19 59.93361 10.59672 15395 ft 322 kts 261°
2026-05-06 19:19 59.93025 10.55270 16135 ft 322 kts 261°
2026-05-06 19:20 59.92693 10.50857 16857 ft 322 kts 261°
2026-05-06 19:20 59.92360 10.46428 17576 ft 324 kts 261°
2026-05-06 19:20 59.92024 10.41987 18288 ft 325 kts 261°
2026-05-06 19:20 59.91684 10.37525 18900 ft 327 kts 261°
2026-05-06 19:21 59.91339 10.33036 19532 ft 329 kts 261°
2026-05-06 19:21 59.90988 10.28515 20172 ft 331 kts 261°
2026-05-06 19:21 59.90634 10.23963 20786 ft 334 kts 261°
2026-05-06 19:21 59.90275 10.19377 21400 ft 336 kts 261°
2026-05-06 19:22 59.89913 10.14776 21983 ft 338 kts 260°
2026-05-06 19:22 59.89546 10.10134 22553 ft 340 kts 260°
2026-05-06 19:22 59.89176 10.05467 23098 ft 343 kts 260°
2026-05-06 19:22 59.88799 10.00762 23615 ft 345 kts 260°
2026-05-06 19:23 59.88418 9.96034 24067 ft 347 kts 260°
2026-05-06 19:23 59.88034 9.91274 24567 ft 349 kts 260°
2026-05-06 19:23 59.87649 9.86519 25059 ft 349 kts 260°
2026-05-06 19:23 59.87261 9.81742 25505 ft 350 kts 259°
2026-05-06 19:24 59.86875 9.77024 25931 ft 351 kts 259°
2026-05-06 19:24 59.86482 9.72216 26314 ft 353 kts 259°
2026-05-06 19:24 59.86084 9.67385 26734 ft 354 kts 259°
2026-05-06 19:24 59.85685 9.62540 27127 ft 356 kts 259°
2026-05-06 19:25 59.85282 9.57673 27554 ft 358 kts 258°
2026-05-06 19:25 59.84874 9.52781 27961 ft 359 kts 258°
2026-05-06 19:25 59.84459 9.47864 28381 ft 361 kts 258°
2026-05-06 19:25 59.84042 9.42937 28767 ft 363 kts 258°
2026-05-06 19:26 59.83622 9.37976 29060 ft 365 kts 258°
2026-05-06 19:26 59.83197 9.32975 29331 ft 369 kts 258°
2026-05-06 19:26 59.82765 9.27922 29664 ft 372 kts 258°
2026-05-06 19:26 59.82328 9.22844 30071 ft 374 kts 257°
2026-05-06 19:27 59.81888 9.17760 30470 ft 372 kts 258°
2026-05-06 19:27 59.81444 9.12686 30840 ft 373 kts 258°
2026-05-06 19:27 59.81000 9.07604 31180 ft 375 kts 258°
2026-05-06 19:27 59.80553 9.02490 31482 ft 377 kts 258°
2026-05-06 19:28 59.80254 8.99082 31692 ft 378 kts 258°
2026-05-06 19:28 59.79800 8.93924 31936 ft 381 kts 258°
2026-05-06 19:28 59.79343 8.88746 31991 ft 380 kts 258°
2026-05-06 19:29 59.78424 8.78458 31997 ft 378 kts 258°
2026-05-06 19:29 59.77498 8.68200 32006 ft 377 kts 258°
2026-05-06 19:30 59.76566 8.57948 32008 ft 377 kts 258°
2026-05-06 19:30 59.75626 8.47694 32011 ft 378 kts 258°
2026-05-06 19:31 59.74670 8.37432 32019 ft 379 kts 258°
2026-05-06 19:31 59.72068 8.22777 32013 ft 379 kts 243°
2026-05-06 19:32 59.69544 8.13615 32026 ft 379 kts 243°
2026-05-06 19:32 59.67023 8.04457 32027 ft 379 kts 243°
2026-05-06 19:33 59.64497 7.95300 31961 ft 379 kts 243°
2026-05-06 19:33 59.61950 7.86142 31869 ft 381 kts 243°
2026-05-06 19:34 59.60674 7.81566 31590 ft 377 kts 243°
2026-05-06 19:34 59.59417 7.77074 31097 ft 371 kts 243°
2026-05-06 19:34 59.58176 7.72656 30612 ft 365 kts 242°
2026-05-06 19:34 59.56955 7.68308 30119 ft 360 kts 242°
2026-05-06 19:35 59.55749 7.64025 29584 ft 354 kts 242°
2026-05-06 19:35 59.54401 7.59975 28672 ft 358 kts 233°
2026-05-06 19:35 59.52817 7.56310 27635 ft 353 kts 233°
2026-05-06 19:35 59.51239 7.52734 27069 ft 338 kts 233°
2026-05-06 19:36 59.49727 7.49334 26622 ft 324 kts 233°
2026-05-06 19:36 59.48216 7.45931 26178 ft 328 kts 233°
2026-05-06 19:36 59.46711 7.42532 25730 ft 330 kts 233°
2026-05-06 19:36 59.45225 7.39179 25293 ft 329 kts 233°
2026-05-06 19:37 59.43728 7.35796 24850 ft 328 kts 234°
2026-05-06 19:37 59.42235 7.32426 24414 ft 326 kts 234°
2026-05-06 19:37 59.40723 7.29023 23990 ft 326 kts 234°
2026-05-06 19:37 59.39259 7.25726 23523 ft 325 kts 233°
2026-05-06 19:38 59.37770 7.22371 23128 ft 327 kts 233°
2026-05-06 19:38 59.36279 7.19019 22713 ft 325 kts 233°
2026-05-06 19:38 59.34774 7.15646 22311 ft 324 kts 233°
2026-05-06 19:38 59.33293 7.12337 21909 ft 322 kts 233°
2026-05-06 19:39 59.31840 7.09094 21538 ft 320 kts 233°
2026-05-06 19:39 59.30373 7.05828 21135 ft 318 kts 233°
2026-05-06 19:39 59.28914 7.02583 20749 ft 316 kts 233°
2026-05-06 19:39 59.27466 6.99365 20349 ft 315 kts 233°
2026-05-06 19:40 59.26023 6.96161 19939 ft 313 kts 233°
2026-05-06 19:40 59.24589 6.92987 19547 ft 311 kts 233°
2026-05-06 19:40 59.23159 6.89820 19127 ft 312 kts 233°
2026-05-06 19:40 59.21701 6.86580 18706 ft 321 kts 233°
2026-05-06 19:41 59.20226 6.83310 18253 ft 321 kts 233°
2026-05-06 19:41 59.18752 6.80055 17771 ft 319 kts 233°
2026-05-06 19:41 59.17279 6.76815 17320 ft 318 kts 233°
2026-05-06 19:41 59.15812 6.73596 16865 ft 317 kts 232°
2026-05-06 19:42 59.14406 6.70301 16151 ft 317 kts 239°
2026-05-06 19:42 59.13191 6.66644 15269 ft 326 kts 240°
2026-05-06 19:42 59.11962 6.62877 14387 ft 334 kts 240°
2026-05-06 19:42 59.10711 6.59016 13578 ft 338 kts 240°
2026-05-06 19:43 59.09446 6.55118 13046 ft 333 kts 240°
2026-05-06 19:43 59.08239 6.51402 12574 ft 327 kts 240°
2026-05-06 19:43 59.07034 6.47707 12117 ft 321 kts 240°
2026-05-06 19:43 59.05844 6.44074 11672 ft 316 kts 240°
2026-05-06 19:44 59.04670 6.40499 11197 ft 313 kts 240°
2026-05-06 19:44 59.03506 6.36969 10773 ft 308 kts 240°
2026-05-06 19:44 59.02355 6.33483 10330 ft 305 kts 239°
2026-05-06 19:44 59.01215 6.30026 9886 ft 303 kts 240°
2026-05-06 19:45 59.00084 6.26594 9376 ft 296 kts 240°
2026-05-06 19:45 58.98997 6.23314 8955 ft 282 kts 240°
2026-05-06 19:45 58.97962 6.20191 8564 ft 269 kts 240°
2026-05-06 19:45 58.96968 6.17202 8175 ft 259 kts 240°
2026-05-06 19:46 58.96013 6.14330 7819 ft 248 kts 240°
2026-05-06 19:46 58.95097 6.11569 7476 ft 240 kts 240°
2026-05-06 19:46 58.94209 6.08897 7130 ft 231 kts 240°
2026-05-06 19:46 58.93352 6.06329 6804 ft 224 kts 240°
2026-05-06 19:47 58.92519 6.03833 6498 ft 218 kts 240°
2026-05-06 19:47 58.91717 6.01432 6219 ft 207 kts 241°
2026-05-06 19:47 58.90947 5.99135 5876 ft 200 kts 241°
2026-05-06 19:47 58.90209 5.96932 5593 ft 190 kts 241°
2026-05-06 19:48 58.89504 5.94825 5321 ft 184 kts 242°
2026-05-06 19:48 58.88823 5.92793 5062 ft 177 kts 242°
2026-05-06 19:48 58.88162 5.90822 4809 ft 173 kts 243°
2026-05-06 19:48 58.87522 5.88916 4564 ft 165 kts 242°
2026-05-06 19:49 58.86901 5.87067 4346 ft 163 kts 242°
2026-05-06 19:49 58.86284 5.85229 4117 ft 163 kts 242°
2026-05-06 19:49 58.85668 5.83391 3851 ft 161 kts 242°
2026-05-06 19:49 58.85064 5.81562 3659 ft 162 kts 243°
2026-05-06 19:50 58.84467 5.79707 3349 ft 163 kts 244°
2026-05-06 19:50 58.83881 5.77846 3039 ft 161 kts 243°
2026-05-06 19:50 58.83308 5.75986 2699 ft 161 kts 244°
2026-05-06 19:50 58.82753 5.74147 2395 ft 157 kts 246°
2026-05-06 19:51 58.82270 5.72319 2090 ft 149 kts 258°
2026-05-06 19:51 58.82093 5.70414 1645 ft 142 kts 276°
2026-05-06 19:51 58.82226 5.68595 1362 ft 135 kts 292°
2026-05-06 19:51 58.82604 5.66980 1158 ft 130 kts 309°
2026-05-06 19:52 58.83192 5.65708 927 ft 125 kts 323°
2026-05-06 19:52 58.83909 5.64801 743 ft 125 kts 333°
2026-05-06 19:52 58.84721 5.64163 570 ft 125 kts 342°
2026-05-06 19:52 58.85582 5.63887 381 ft 127 kts 352°
2026-05-06 19:53 58.86479 5.63830 211 ft 127 kts 355°
2026-05-06 19:53 58.87351 5.63788 42 ft 124 kts 358°
2026-05-06 19:53 58.88030 5.63768 32 ft 61 kts 359°
2026-05-06 19:53 58.88381 5.63761 31 ft 41 kts 359°
2026-05-06 19:54 58.88625 5.63755 29 ft 31 kts 358°
2026-05-06 19:54 58.88707 5.63611 28 ft 18 kts 273°
2026-05-06 19:54 58.88660 5.63427 31 ft 17 kts 195°
2026-05-06 19:54 58.88531 5.63425 31 ft 18 kts 180°
2026-05-06 19:55 58.88445 5.63340 29 ft 16 kts 249°
2026-05-06 19:55 58.88420 5.63199 28 ft 9 kts 268°
2026-05-06 19:55 58.88386 5.63066 31 ft 14 kts 226°
2026-05-06 19:55 58.88363 5.63021 25 ft 0 kts 223°
2026-05-06 19:56 58.88360 5.63016 27 ft 1 kts 222°
2026-05-06 19:56 58.88355 5.63009 27 ft 1 kts 221°
2026-05-06 19:56 58.88354 5.63007 27 ft 0 kts 221°